Time,TemperatureF,DewpointF,PressureIn,WindDirection,WindDirectionDegrees,WindSpeedMPH,WindSpeedGustMPH,Humidity,HourlyPrecipIn,Conditions,Clouds,dailyrainin,SoftwareType,DateUTC
2013-09-10 00:03:00,72.5,68.7,29.77,SW,225,1.1,3.2,88,0.00,RA,,0.00,WeatherDisplay:10.37,2013-09-10 05:03:00,
2013-09-10 00:08:00,72.5,68.7,29.77,SW,225,0.2,1.2,88,0.00,RA,,0.00,WeatherDisplay:10.37,2013-09-10 05:08:00,
2013-09-10 00:13:00,72.3,68.5,29.77,WSW,248,0.0,0.0,88,0.00,CLR,,0.00,WeatherDisplay:10.37,2013-09-10 05:13:00,
2013-09-10 00:18:00,72.1,68.7,29.77,West,270,0.0,0.0,89,0.00,CLR,,0.00,WeatherDisplay:10.37,2013-09-10 05:18:00,
2013-09-10 00:23:00,72.0,68.6,29.77,WNW,292,4.7,5.8,89,0.00,CLR,,0.00,WeatherDisplay:10.37,2013-09-10 05:23:00,
2013-09-10 00:28:00,72.0,68.6,29.78,West,270,0.0,1.2,89,0.00,CLR,,0.00,WeatherDisplay:10.37,2013-09-10 05:28:00,
2013-09-10 00:33:00,71.6,68.2,29.78,SSW,202,0.0,0.0,89,0.00,CLR,,0.00,WeatherDisplay:10.37,2013-09-10 05:33:00,
2013-09-10 00:38:00,71.6,68.2,29.78,SW,225,3.0,3.5,89,0.00,CLR,,0.00,WeatherDisplay:10.37,2013-09-10 05:38:00,
2013-09-10 00:43:00,71.4,68.0,29.78,SW,225,2.5,4.2,89,0.00,CLR,,0.00,WeatherDisplay:10.37,2013-09-10 05:43:00,
2013-09-10 00:48:00,71.2,67.8,29.78,NNW,338,2.7,3.5,89,0.00,CLR,,0.00,WeatherDisplay:10.37,2013-09-10 05:48:00,
2013-09-10 00:53:00,71.1,67.4,29.78,SW,225,2.8,3.7,88,0.00,CLR,,0.00,WeatherDisplay:10.37,2013-09-10 05:53:00,
2013-09-10 00:58:00,71.1,67.4,29.78,SSW,202,1.9,2.3,88,0.00,CLR,,0.00,WeatherDisplay:10.37,2013-09-10 05:58:00,
2013-09-10 01:03:00,70.9,67.2,29.78,West,270,1.6,2.7,88,0.00,CLR,,0.00,WeatherDisplay:10.37,2013-09-10 06:03:00,
2013-09-10 01:08:00,70.5,66.8,29.78,WNW,292,2.2,3.2,88,0.00,CLR,,0.00,WeatherDisplay:10.37,2013-09-10 06:08:00,
2013-09-10 01:13:00,70.3,66.6,29.78,West,270,2.2,3.5,88,0.00,CLR,,0.00,WeatherDisplay:10.37,2013-09-10 06:13:00,
2013-09-10 01:18:00,70.2,66.5,29.78,South,180,2.1,4.6,88,0.00,CLR,,0.00,WeatherDisplay:10.37,2013-09-10 06:18:00,
2013-09-10 01:23:00,70.0,66.3,29.78,SSW,202,0.8,1.2,88,0.00,CLR,,0.00,WeatherDisplay:10.37,2013-09-10 06:23:00,
2013-09-10 01:28:00,69.8,66.1,29.78,SSW,202,2.2,2.7,88,0.00,CLR,,0.00,WeatherDisplay:10.37,2013-09-10 06:28:00,
2013-09-10 01:33:00,69.4,65.7,29.78,SSW,202,2.0,2.3,88,0.00,CLR,,0.00,WeatherDisplay:10.37,2013-09-10 06:33:00,
2013-09-10 01:38:00,69.4,65.7,29.79,West,270,1.5,1.5,88,0.00,CLR,,0.00,WeatherDisplay:10.37,2013-09-10 06:38:00,
2013-09-10 01:43:00,69.3,65.6,29.79,West,270,2.6,3.5,88,0.00,CLR,,0.00,WeatherDisplay:10.37,2013-09-10 06:43:00,
2013-09-10 01:48:00,69.1,65.4,29.80,WSW,248,2.1,2.3,88,0.00,CLR,,0.00,WeatherDisplay:10.37,2013-09-10 06:48:00,
2013-09-10 01:53:00,69.1,65.4,29.80,West,270,2.9,3.7,88,0.00,CLR,,0.00,WeatherDisplay:10.37,2013-09-10 06:53:00,
2013-09-10 01:58:00,69.1,65.7,29.80,West,270,2.3,3.5,89,0.00,CLR,,0.00,WeatherDisplay:10.37,2013-09-10 06:58:00,
2013-09-10 02:03:00,69.1,65.7,29.80,West,270,2.2,4.6,89,0.00,CLR,,0.00,WeatherDisplay:10.37,2013-09-10 07:03:00,
2013-09-10 02:08:00,69.1,65.7,29.80,SSW,202,1.5,1.5,89,0.00,CLR,,0.00,WeatherDisplay:10.37,2013-09-10 07:08:00,
2013-09-10 02:13:00,69.1,65.7,29.81,West,270,2.2,2.3,89,0.00,CLR,,0.00,WeatherDisplay:10.37,2013-09-10 07:13:00,
2013-09-10 02:18:00,69.1,65.7,29.81,SW,225,1.2,1.2,89,0.00,CLR,,0.00,WeatherDisplay:10.37,2013-09-10 07:18:00,
2013-09-10 02:23:00,69.1,65.7,29.81,WSW,248,2.1,2.3,89,0.00,CLR,,0.00,WeatherDisplay:10.37,2013-09-10 07:23:00,
2013-09-10 02:28:00,68.9,65.5,29.81,NW,315,2.5,3.2,89,0.00,CLR,,0.00,WeatherDisplay:10.37,2013-09-10 07:28:00,
2013-09-10 02:33:00,68.9,65.5,29.81,WNW,292,3.7,3.7,89,0.00,CLR,,0.00,WeatherDisplay:10.37,2013-09-10 07:33:00,
2013-09-10 02:38:00,68.9,65.5,29.82,SW,225,3.7,5.8,89,0.00,CLR,,0.00,WeatherDisplay:10.37,2013-09-10 07:38:00,
2013-09-10 02:43:00,68.9,65.5,29.82,West,270,2.4,3.5,89,0.00,CLR,,0.00,WeatherDisplay:10.37,2013-09-10 07:43:00,
2013-09-10 02:48:00,68.9,65.5,29.82,WSW,248,1.5,4.7,89,0.00,CLR,,0.00,WeatherDisplay:10.37,2013-09-10 07:48:00,
2013-09-10 02:53:00,68.9,65.5,29.82,WSW,248,3.4,4.6,89,0.00,SCT,,0.00,WeatherDisplay:10.37,2013-09-10 07:53:00,
2013-09-10 02:58:00,68.9,65.5,29.82,West,270,4.7,4.7,89,0.00,SCT,,0.00,WeatherDisplay:10.37,2013-09-10 07:58:00,
2013-09-10 03:03:00,68.9,65.5,29.82,South,180,2.2,4.6,89,0.00,SCT,,0.00,WeatherDisplay:10.37,2013-09-10 08:03:00,
2013-09-10 03:08:00,68.9,65.5,29.82,SW,225,2.4,2.4,89,0.00,SCT,,0.00,WeatherDisplay:10.37,2013-09-10 08:08:00,
2013-09-10 03:13:00,68.9,65.5,29.83,SSW,202,4.1,5.8,89,0.00,BKN,,0.00,WeatherDisplay:10.37,2013-09-10 08:13:00,
2013-09-10 03:18:00,68.9,65.5,29.83,North,360,1.8,2.3,89,0.00,BKN,,0.00,WeatherDisplay:10.37,2013-09-10 08:18:00,
2013-09-10 03:23:00,68.9,65.5,29.83,SSW,202,0.3,2.3,89,0.00,BKN,,0.00,WeatherDisplay:10.37,2013-09-10 08:23:00,
2013-09-10 03:28:00,68.9,65.5,29.83,SW,225,1.9,2.7,89,0.00,BKN,,0.00,WeatherDisplay:10.37,2013-09-10 08:28:00,
2013-09-10 03:33:00,68.7,65.3,29.83,WNW,292,2.3,2.7,89,0.00,BKN,,0.00,WeatherDisplay:10.37,2013-09-10 08:33:00,
2013-09-10 03:38:00,68.7,65.3,29.83,SW,225,0.1,1.2,89,0.00,BKN,,0.00,WeatherDisplay:10.37,2013-09-10 08:38:00,
2013-09-10 03:43:00,68.5,65.1,29.83,WSW,248,2.5,3.5,89,0.00,BKN,,0.00,WeatherDisplay:10.37,2013-09-10 08:43:00,
2013-09-10 03:48:00,68.5,65.4,29.82,SSW,202,1.9,2.3,90,0.00,BKN,,0.00,WeatherDisplay:10.37,2013-09-10 08:48:00,
2013-09-10 03:53:00,68.5,65.4,29.82,SW,225,0.5,1.2,90,0.00,SCT,,0.00,WeatherDisplay:10.37,2013-09-10 08:53:00,
2013-09-10 03:58:00,68.4,65.4,29.82,SW,225,0.9,1.7,90,0.00,SCT,,0.00,WeatherDisplay:10.37,2013-09-10 08:58:00,
2013-09-10 04:03:00,68.4,65.4,29.82,South,180,0.0,0.0,90,0.00,SCT,,0.00,WeatherDisplay:10.37,2013-09-10 09:03:00,
2013-09-10 04:08:00,68.4,65.4,29.82,SSW,202,2.1,3.5,90,0.00,SCT,,0.00,WeatherDisplay:10.37,2013-09-10 09:08:00,
2013-09-10 04:13:00,68.4,65.4,29.83,WSW,248,0.0,1.2,90,0.00,SCT,,0.00,WeatherDisplay:10.37,2013-09-10 09:13:00,
2013-09-10 04:18:00,68.4,65.4,29.83,WSW,248,0.3,2.3,90,0.00,SCT,,0.00,WeatherDisplay:10.37,2013-09-10 09:18:00,
2013-09-10 04:23:00,68.4,65.4,29.83,WSW,248,1.3,1.3,90,0.00,SCT,,0.00,WeatherDisplay:10.37,2013-09-10 09:23:00,
2013-09-10 04:28:00,68.2,65.2,29.83,West,270,1.9,2.7,90,0.00,SCT,,0.00,WeatherDisplay:10.37,2013-09-10 09:28:00,
2013-09-10 04:33:00,68.2,65.2,29.83,SSW,202,0.3,1.2,90,0.00,SCT,,0.00,WeatherDisplay:10.37,2013-09-10 09:33:00,
2013-09-10 04:38:00,68.2,65.2,29.83,WSW,248,2.7,3.5,90,0.00,SCT,,0.00,WeatherDisplay:10.37,2013-09-10 09:38:00,
2013-09-10 04:43:00,68.2,65.2,29.83,WSW,248,3.3,3.5,90,0.00,SCT,,0.00,WeatherDisplay:10.37,2013-09-10 09:43:00,
2013-09-10 04:48:00,68.2,65.2,29.84,SSW,202,0.6,2.3,90,0.00,SCT,,0.00,WeatherDisplay:10.37,2013-09-10 09:48:00,
2013-09-10 04:53:00,68.2,65.2,29.84,West,270,2.2,4.6,90,0.00,SCT,,0.00,WeatherDisplay:10.37,2013-09-10 09:53:00,
2013-09-10 04:58:00,68.0,65.0,29.84,SSW,202,0.7,2.2,90,0.00,SCT,,0.00,WeatherDisplay:10.37,2013-09-10 09:58:00,
2013-09-10 05:03:00,68.0,65.0,29.84,SSW,202,1.2,2.3,90,0.00,SCT,,0.00,WeatherDisplay:10.37,2013-09-10 10:03:00,
2013-09-10 05:08:00,67.8,64.8,29.84,WSW,248,0.0,0.0,90,0.00,SCT,,0.00,WeatherDisplay:10.37,2013-09-10 10:08:00,
2013-09-10 05:13:00,67.8,65.1,29.84,West,270,0.0,0.0,91,0.00,SCT,,0.00,WeatherDisplay:10.37,2013-09-10 10:13:00,
2013-09-10 05:18:00,67.6,65.2,29.84,West,270,3.5,4.6,92,0.00,SCT,,0.00,WeatherDisplay:10.37,2013-09-10 10:18:00,
2013-09-10 05:23:00,67.5,65.1,29.84,WSW,248,2.8,3.5,92,0.00,SCT,,0.00,WeatherDisplay:10.37,2013-09-10 10:23:00,
2013-09-10 05:28:00,67.5,65.1,29.85,SW,225,1.8,3.5,92,0.00,SCT,,0.00,WeatherDisplay:10.37,2013-09-10 10:28:00,
2013-09-10 05:33:00,67.3,64.9,29.85,West,270,2.3,2.3,92,0.00,BKN,,0.00,WeatherDisplay:10.37,2013-09-10 10:33:00,
2013-09-10 05:38:00,67.3,64.9,29.85,West,270,0.0,1.2,92,0.00,BKN,,0.00,WeatherDisplay:10.37,2013-09-10 10:38:00,
2013-09-10 05:43:00,67.3,64.9,29.85,SSE,158,1.2,3.5,92,0.00,BKN,,0.00,WeatherDisplay:10.37,2013-09-10 10:43:00,
2013-09-10 05:48:00,67.1,64.7,29.84,SSW,202,0.0,0.0,92,0.00,BKN,,0.00,WeatherDisplay:10.37,2013-09-10 10:48:00,
2013-09-10 05:53:00,66.9,64.5,29.84,West,270,2.4,3.5,92,0.00,BKN,,0.00,WeatherDisplay:10.37,2013-09-10 10:53:00,
2013-09-10 05:58:00,66.9,64.5,29.84,WSW,248,1.7,2.3,92,0.00,BKN,,0.00,WeatherDisplay:10.37,2013-09-10 10:58:00,
2013-09-10 06:03:00,66.7,64.3,29.85,SSE,158,1.6,2.3,92,0.00,BKN,,0.00,WeatherDisplay:10.37,2013-09-10 11:03:00,
2013-09-10 06:08:00,66.7,64.3,29.85,SSW,202,0.5,1.2,92,0.00,BKN,,0.00,WeatherDisplay:10.37,2013-09-10 11:08:00,
2013-09-10 06:13:00,66.6,64.2,29.85,WSW,248,0.0,0.0,92,0.00,-RA,,0.00,WeatherDisplay:10.37,2013-09-10 11:13:00,
2013-09-10 06:18:00,66.4,64.0,29.85,SSE,158,0.6,1.2,92,0.00,-RA,,0.00,WeatherDisplay:10.37,2013-09-10 11:18:00,
2013-09-10 06:23:00,66.4,64.3,29.86,West,270,1.4,2.3,93,0.00,-RA,,0.00,WeatherDisplay:10.37,2013-09-10 11:23:00,
2013-09-10 06:28:00,66.4,64.3,29.86,WNW,292,0.4,2.2,93,0.00,-RA,,0.00,WeatherDisplay:10.37,2013-09-10 11:28:00,
2013-09-10 06:33:00,66.4,64.3,29.86,WSW,248,2.4,2.7,93,0.00,-RA,,0.00,WeatherDisplay:10.37,2013-09-10 11:33:00,
2013-09-10 06:38:00,66.6,64.5,29.87,WSW,248,2.7,3.5,93,0.00,-RA,,0.00,WeatherDisplay:10.37,2013-09-10 11:38:00,
2013-09-10 06:44:00,66.6,64.5,29.87,SSW,202,3.5,3.5,93,0.00,-RA,,0.00,WeatherDisplay:10.37,2013-09-10 11:44:00,
2013-09-10 06:49:00,66.6,64.5,29.88,WSW,248,2.2,3.5,93,0.00,-RA,,0.00,WeatherDisplay:10.37,2013-09-10 11:49:00,
2013-09-10 06:54:00,66.7,64.6,29.88,SSW,202,1.9,2.3,93,0.00,-RA,,0.00,WeatherDisplay:10.37,2013-09-10 11:54:00,
2013-09-10 06:59:00,66.7,64.3,29.89,West,270,2.3,3.5,92,0.00,-RA,,0.00,WeatherDisplay:10.37,2013-09-10 11:59:00,
2013-09-10 07:04:00,66.7,64.3,29.89,WSW,248,0.5,2.3,92,0.00,-RA,,0.00,WeatherDisplay:10.37,2013-09-10 12:04:00,
2013-09-10 07:09:00,66.9,64.5,29.89,SW,225,4.0,5.8,92,0.00,-RA,,0.00,WeatherDisplay:10.37,2013-09-10 12:09:00,
2013-09-10 07:14:00,67.1,64.7,29.89,WSW,248,2.7,2.7,92,0.00,-RA,,0.00,WeatherDisplay:10.37,2013-09-10 12:14:00,
2013-09-10 07:19:00,67.1,64.4,29.89,SSW,202,1.6,4.6,91,0.00,-RA,,0.00,WeatherDisplay:10.37,2013-09-10 12:19:00,
2013-09-10 07:24:00,67.3,64.6,29.89,West,270,1.4,4.7,91,0.00,-RA,,0.00,WeatherDisplay:10.37,2013-09-10 12:24:00,
2013-09-10 07:29:00,67.5,64.8,29.89,SW,225,1.4,3.5,91,0.00,-RA,,0.00,WeatherDisplay:10.37,2013-09-10 12:29:00,
2013-09-10 07:34:00,67.5,64.8,29.89,SSW,202,0.2,2.3,91,0.00,BKN,,0.00,WeatherDisplay:10.37,2013-09-10 12:34:00,
2013-09-10 07:39:00,67.5,64.8,29.87,South,180,0.0,1.2,91,0.00,BKN,,0.00,WeatherDisplay:10.37,2013-09-10 12:39:00,
2013-09-10 07:44:00,67.3,64.6,29.87,SE,135,0.0,0.0,91,0.00,BKN,,0.00,WeatherDisplay:10.37,2013-09-10 12:44:00,
2013-09-10 07:49:00,67.3,64.6,29.86,SSW,202,0.0,0.0,91,0.00,BKN,,0.00,WeatherDisplay:10.37,2013-09-10 12:49:00,
2013-09-10 07:54:00,67.3,64.6,29.86,SW,225,0.0,0.0,91,0.00,-RA,,0.00,WeatherDisplay:10.37,2013-09-10 12:54:00,
2013-09-10 07:59:00,67.1,64.7,29.87,SSW,202,0.0,0.0,92,0.00,-RA,,0.00,WeatherDisplay:10.37,2013-09-10 12:59:00,
2013-09-10 08:04:00,67.1,64.7,29.87,South,180,0.0,0.0,92,0.00,-RA,,0.00,WeatherDisplay:10.37,2013-09-10 13:04:00,
2013-09-10 08:09:00,67.1,64.7,29.87,South,180,0.0,0.0,92,0.00,-RA,,0.00,WeatherDisplay:10.37,2013-09-10 13:09:00,
2013-09-10 08:14:00,67.1,64.7,29.87,South,180,0.0,0.0,92,0.00,-RA,,0.00,WeatherDisplay:10.37,2013-09-10 13:14:00,
2013-09-10 08:19:00,67.1,64.7,29.87,SSW,202,0.0,0.0,92,0.00,-RA,,0.00,WeatherDisplay:10.37,2013-09-10 13:19:00,
2013-09-10 08:24:00,67.1,64.7,29.88,South,180,0.0,0.0,92,0.00,-RA,,0.00,WeatherDisplay:10.37,2013-09-10 13:24:00,
2013-09-10 08:29:00,67.1,64.7,29.88,South,180,0.0,0.0,92,0.00,-RA,,0.00,WeatherDisplay:10.37,2013-09-10 13:29:00,
2013-09-10 08:34:00,67.3,64.9,29.88,South,180,0.0,0.0,92,0.00,CLR,,0.00,WeatherDisplay:10.37,2013-09-10 13:34:00,
2013-09-10 08:39:00,67.3,64.9,29.88,South,180,0.0,0.0,92,0.00,CLR,,0.00,WeatherDisplay:10.37,2013-09-10 13:39:00,
2013-09-10 08:44:00,67.5,65.1,29.88,South,180,0.0,0.0,92,0.00,CLR,,0.00,WeatherDisplay:10.37,2013-09-10 13:44:00,
2013-09-10 08:49:00,67.8,65.4,29.88,South,180,0.0,0.0,92,0.00,CLR,,0.00,WeatherDisplay:10.37,2013-09-10 13:49:00,
2013-09-10 08:54:00,68.4,66.0,29.88,SSW,202,0.0,0.0,92,0.00,CLR,,0.00,WeatherDisplay:10.37,2013-09-10 13:54:00,
2013-09-10 08:59:00,69.1,66.0,29.88,South,180,0.0,0.0,90,0.00,CLR,,0.00,WeatherDisplay:10.37,2013-09-10 13:59:00,
2013-09-10 09:04:00,69.3,65.9,29.89,West,270,1.9,3.5,89,0.00,CLR,,0.00,WeatherDisplay:10.37,2013-09-10 14:04:00,
2013-09-10 09:09:00,69.4,65.7,29.89,West,270,0.0,0.0,88,0.00,CLR,,0.00,WeatherDisplay:10.37,2013-09-10 14:09:00,
2013-09-10 09:14:00,69.6,65.6,29.89,WNW,292,2.1,2.3,87,0.00,-RA,,0.00,WeatherDisplay:10.37,2013-09-10 14:14:00,
2013-09-10 09:19:00,69.6,65.6,29.89,South,180,2.2,3.5,87,0.00,-RA,,0.00,WeatherDisplay:10.37,2013-09-10 14:19:00,
2013-09-10 09:24:00,69.8,65.8,29.89,WSW,248,0.8,1.2,87,0.00,-RA,,0.00,WeatherDisplay:10.37,2013-09-10 14:24:00,
2013-09-10 09:29:00,69.8,65.8,29.89,West,270,3.1,3.5,87,0.00,-RA,,0.00,WeatherDisplay:10.37,2013-09-10 14:29:00,
2013-09-10 09:34:00,69.8,65.8,29.89,SW,225,1.8,2.3,87,0.00,CLR,,0.00,WeatherDisplay:10.37,2013-09-10 14:34:00,
2013-09-10 09:39:00,70.0,65.6,29.89,West,270,2.7,3.5,86,0.00,CLR,,0.00,WeatherDisplay:10.37,2013-09-10 14:39:00,
2013-09-10 09:44:00,70.2,65.5,29.89,SSW,202,2.0,2.3,85,0.00,CLR,,0.00,WeatherDisplay:10.37,2013-09-10 14:44:00,
2013-09-10 09:49:00,70.3,65.6,29.90,SSW,202,2.1,2.3,85,0.00,CLR,,0.00,WeatherDisplay:10.37,2013-09-10 14:49:00,
2013-09-10 09:54:00,70.3,65.6,29.90,West,270,2.1,2.3,85,0.00,CLR,,0.00,WeatherDisplay:10.37,2013-09-10 14:54:00,
2013-09-10 09:59:00,70.7,66.0,29.90,WNW,292,1.0,2.3,85,0.00,CLR,,0.00,WeatherDisplay:10.37,2013-09-10 14:59:00,
2013-09-10 10:04:00,70.9,66.2,29.90,WSW,248,1.9,3.5,85,0.00,CLR,,0.00,WeatherDisplay:10.37,2013-09-10 15:04:00,
2013-09-10 10:09:00,71.2,66.1,29.90,South,180,1.5,2.3,84,0.00,CLR,,0.00,WeatherDisplay:10.37,2013-09-10 15:09:00,
2013-09-10 10:14:00,71.4,66.3,29.90,West,270,3.0,4.2,84,0.00,CLR,,0.00,WeatherDisplay:10.37,2013-09-10 15:14:00,
2013-09-10 10:19:00,71.2,65.8,29.90,SW,225,2.9,4.6,83,0.00,CLR,,0.00,WeatherDisplay:10.37,2013-09-10 15:19:00,
2013-09-10 10:24:00,71.8,66.4,29.90,WSW,248,2.7,3.7,83,0.00,CLR,,0.00,WeatherDisplay:10.37,2013-09-10 15:24:00,
2013-09-10 10:29:00,72.0,65.8,29.90,WSW,248,3.4,3.7,81,0.00,CLR,,0.00,WeatherDisplay:10.37,2013-09-10 15:29:00,
2013-09-10 10:34:00,71.6,65.5,29.90,West,270,2.8,5.8,81,0.00,CLR,,0.00,WeatherDisplay:10.37,2013-09-10 15:34:00,
2013-09-10 10:39:00,71.6,65.5,29.92,West,270,2.7,3.7,81,0.00,CLR,,0.00,WeatherDisplay:10.37,2013-09-10 15:39:00,
2013-09-10 10:44:00,71.8,65.7,29.92,South,180,0.7,3.5,81,0.00,SCT,,0.00,WeatherDisplay:10.37,2013-09-10 15:44:00,
2013-09-10 10:49:00,71.8,65.7,29.92,West,270,2.9,5.8,81,0.00,SCT,,0.00,WeatherDisplay:10.37,2013-09-10 15:49:00,
2013-09-10 10:54:00,71.6,65.8,29.92,South,180,2.1,3.5,82,0.00,SCT,,0.00,WeatherDisplay:10.37,2013-09-10 15:54:00,
2013-09-10 10:59:00,70.7,65.3,29.92,West,270,2.2,2.3,83,0.00,SCT,,0.00,WeatherDisplay:10.37,2013-09-10 15:59:00,
2013-09-10 11:04:00,70.5,65.4,29.92,WNW,292,1.7,2.7,84,0.00,SCT,,0.00,WeatherDisplay:10.37,2013-09-10 16:04:00,
2013-09-10 11:09:00,70.2,65.8,29.92,WSW,248,1.8,2.3,86,0.01,RA,,0.01,WeatherDisplay:10.37,2013-09-10 16:09:00,
2013-09-10 11:14:00,70.2,65.8,29.92,SSW,202,0.9,2.2,86,0.01,RA,,0.01,WeatherDisplay:10.37,2013-09-10 16:14:00,
2013-09-10 11:19:00,70.0,66.0,29.92,SSW,202,2.2,2.3,87,0.01,SCT,,0.01,WeatherDisplay:10.37,2013-09-10 16:19:00,
2013-09-10 11:24:00,70.2,66.1,29.92,West,270,0.0,0.0,87,0.01,SCT,,0.01,WeatherDisplay:10.37,2013-09-10 16:24:00,
2013-09-10 11:29:00,70.5,66.4,29.92,South,180,0.7,1.2,87,0.01,SCT,,0.01,WeatherDisplay:10.37,2013-09-10 16:29:00,
2013-09-10 11:34:00,70.5,66.4,29.92,South,180,1.4,2.3,87,0.01,SCT,,0.01,WeatherDisplay:10.37,2013-09-10 16:34:00,
2013-09-10 11:39:00,71.6,67.5,29.92,SSW,202,1.9,3.5,87,0.01,SCT,,0.01,WeatherDisplay:10.37,2013-09-10 16:39:00,
2013-09-10 11:44:00,72.1,67.3,29.92,West,270,2.3,3.7,85,0.01,CLR,,0.01,WeatherDisplay:10.37,2013-09-10 16:44:00,
2013-09-10 11:49:00,72.7,67.6,29.92,SW,225,2.8,3.5,84,0.01,CLR,,0.01,WeatherDisplay:10.37,2013-09-10 16:49:00,
2013-09-10 11:54:00,73.0,67.5,29.92,WSW,248,1.1,2.3,83,0.01,CLR,,0.01,WeatherDisplay:10.37,2013-09-10 16:54:00,
2013-09-10 11:59:00,73.2,67.7,29.92,South,180,2.1,2.7,83,0.01,CLR,,0.01,WeatherDisplay:10.37,2013-09-10 16:59:00,
2013-09-10 12:04:00,73.0,66.8,29.92,SSW,202,2.6,4.2,81,0.01,SCT,,0.01,WeatherDisplay:10.37,2013-09-10 17:04:00,
2013-09-10 12:09:00,73.0,66.8,29.92,West,270,3.3,4.7,81,0.00,SCT,,0.01,WeatherDisplay:10.37,2013-09-10 17:09:00,
2013-09-10 12:14:00,73.8,67.2,29.92,West,270,2.7,3.7,80,0.00,SCT,,0.01,WeatherDisplay:10.37,2013-09-10 17:14:00,
2013-09-10 12:19:00,73.9,67.0,29.92,SSW,202,2.9,3.5,79,0.00,SCT,,0.01,WeatherDisplay:10.37,2013-09-10 17:19:00,
2013-09-10 12:24:00,75.6,67.5,29.92,SSW,202,3.3,3.5,76,0.00,SCT,,0.01,WeatherDisplay:10.37,2013-09-10 17:24:00,
2013-09-10 12:29:00,75.6,65.1,29.92,SSW,202,3.8,6.9,70,0.00,SCT,,0.01,WeatherDisplay:10.37,2013-09-10 17:29:00,
2013-09-10 12:34:00,76.3,65.8,29.92,West,270,5.1,5.8,70,0.00,SCT,,0.01,WeatherDisplay:10.37,2013-09-10 17:34:00,
2013-09-10 12:39:00,74.8,64.8,29.91,SSW,202,4.4,6.3,71,0.00,SCT,,0.01,WeatherDisplay:10.37,2013-09-10 17:39:00,
2013-09-10 12:44:00,74.8,64.8,29.91,SSW,202,5.8,5.8,71,0.00,CLR,,0.01,WeatherDisplay:10.37,2013-09-10 17:44:00,
2013-09-10 12:49:00,75.6,65.1,29.92,SSW,202,3.4,5.8,70,0.00,CLR,,0.01,WeatherDisplay:10.37,2013-09-10 17:49:00,
2013-09-10 12:54:00,76.8,65.4,29.92,WSW,248,5.1,5.1,68,0.00,CLR,,0.01,WeatherDisplay:10.37,2013-09-10 17:54:00,
2013-09-10 12:59:00,77.0,65.6,29.92,WSW,248,4.5,9.2,68,0.00,CLR,,0.01,WeatherDisplay:10.37,2013-09-10 17:59:00,
2013-09-10 13:04:00,77.7,65.9,29.92,South,180,3.2,5.8,67,0.00,CLR,,0.01,WeatherDisplay:10.37,2013-09-10 18:04:00,
2013-09-10 13:09:00,78.3,66.0,29.92,West,270,4.1,5.8,66,0.00,CLR,,0.01,WeatherDisplay:10.37,2013-09-10 18:09:00,
2013-09-10 13:14:00,77.7,65.0,29.92,West,270,3.7,7.3,65,0.00,CLR,,0.01,WeatherDisplay:10.37,2013-09-10 18:14:00,
2013-09-10 13:19:00,79.0,65.8,29.92,SSW,202,5.6,6.9,64,0.00,CLR,,0.01,WeatherDisplay:10.37,2013-09-10 18:19:00,
2013-09-10 13:24:00,79.3,65.6,29.92,SW,225,5.3,5.8,63,0.00,CLR,,0.01,WeatherDisplay:10.37,2013-09-10 18:24:00,
2013-09-10 13:29:00,79.5,65.8,29.92,SSW,202,3.7,4.6,63,0.00,CLR,,0.01,WeatherDisplay:10.37,2013-09-10 18:29:00,
2013-09-10 13:34:00,80.2,65.5,29.92,West,270,2.6,3.5,61,0.00,CLR,,0.01,WeatherDisplay:10.37,2013-09-10 18:34:00,
2013-09-10 13:39:00,81.1,66.4,29.92,South,180,5.7,6.9,61,0.00,CLR,,0.01,WeatherDisplay:10.37,2013-09-10 18:39:00,
2013-09-10 13:44:00,81.0,66.3,29.92,WSW,248,4.3,6.9,61,0.00,CLR,,0.01,WeatherDisplay:10.37,2013-09-10 18:44:00,
2013-09-10 13:49:00,80.6,65.4,29.92,SSW,202,5.4,6.9,60,0.00,CLR,,0.01,WeatherDisplay:10.37,2013-09-10 18:49:00,
2013-09-10 13:54:00,82.4,67.1,29.92,SSW,202,4.6,4.6,60,0.00,CLR,,0.01,WeatherDisplay:10.37,2013-09-10 18:54:00,
2013-09-10 13:59:00,81.1,66.4,29.91,SW,225,4.8,5.8,61,0.00,CLR,,0.01,WeatherDisplay:10.37,2013-09-10 18:59:00,
2013-09-10 14:04:00,83.1,66.8,29.91,SW,225,3.8,5.8,58,0.00,CLR,,0.01,WeatherDisplay:10.37,2013-09-10 19:04:00,
2013-09-10 14:09:00,82.0,66.3,29.91,SSW,202,5.7,7.8,59,0.00,CLR,,0.01,WeatherDisplay:10.37,2013-09-10 19:09:00,
2013-09-10 14:14:00,81.5,65.8,29.91,SSW,202,3.6,5.8,59,0.00,CLR,,0.01,WeatherDisplay:10.37,2013-09-10 19:14:00,
2013-09-10 14:19:00,82.2,66.4,29.91,SSW,202,4.6,5.8,59,0.00,CLR,,0.01,WeatherDisplay:10.37,2013-09-10 19:19:00,
2013-09-10 14:24:00,83.3,67.0,29.91,WSW,248,2.6,4.6,58,0.00,CLR,,0.01,WeatherDisplay:10.37,2013-09-10 19:24:00,
2013-09-10 14:29:00,82.9,66.6,29.91,SSW,202,3.8,4.7,58,0.00,CLR,,0.01,WeatherDisplay:10.37,2013-09-10 19:29:00,
2013-09-10 14:34:00,81.3,66.1,29.91,WSW,248,4.5,5.3,60,0.00,CLR,,0.01,WeatherDisplay:10.37,2013-09-10 19:34:00,
2013-09-10 14:39:00,80.1,65.4,29.91,SSE,158,3.2,4.6,61,0.00,CLR,,0.01,WeatherDisplay:10.37,2013-09-10 19:39:00,
2013-09-10 14:44:00,80.4,65.7,29.91,WSW,248,4.7,6.8,61,0.00,CLR,,0.01,WeatherDisplay:10.37,2013-09-10 19:44:00,
2013-09-10 14:49:00,79.9,65.2,29.90,SSW,202,6.3,6.3,61,0.00,CLR,,0.01,WeatherDisplay:10.37,2013-09-10 19:49:00,
2013-09-10 14:54:00,80.4,65.7,29.90,SSW,202,5.6,8.8,61,0.00,CLR,,0.01,WeatherDisplay:10.37,2013-09-10 19:54:00,
2013-09-10 14:59:00,79.7,65.1,29.91,West,270,4.2,6.3,61,0.00,CLR,,0.01,WeatherDisplay:10.37,2013-09-10 19:59:00,
2013-09-10 15:04:00,79.2,65.1,29.91,SW,225,4.3,4.6,62,0.00,SCT,,0.01,WeatherDisplay:10.37,2013-09-10 20:04:00,
2013-09-10 15:09:00,78.6,64.5,29.91,SSW,202,3.7,4.6,62,0.00,SCT,,0.01,WeatherDisplay:10.37,2013-09-10 20:09:00,
2013-09-10 15:14:00,79.3,65.1,29.90,SW,225,5.1,7.3,62,0.00,SCT,,0.01,WeatherDisplay:10.37,2013-09-10 20:14:00,
2013-09-10 15:19:00,79.3,65.1,29.90,South,180,3.5,4.6,62,0.00,SCT,,0.01,WeatherDisplay:10.37,2013-09-10 20:19:00,
2013-09-10 15:24:00,79.5,65.3,29.90,SSW,202,2.4,4.6,62,0.00,BKN,,0.01,WeatherDisplay:10.37,2013-09-10 20:24:00,
2013-09-10 15:29:00,79.3,64.7,29.90,SSE,158,3.3,4.6,61,0.00,BKN,,0.01,WeatherDisplay:10.37,2013-09-10 20:29:00,
2013-09-10 15:34:00,79.5,64.9,29.90,WSW,248,3.7,3.7,61,0.00,BKN,,0.01,WeatherDisplay:10.37,2013-09-10 20:34:00,
2013-09-10 15:39:00,81.0,66.3,29.90,WSW,248,4.4,4.7,61,0.00,BKN,,0.01,WeatherDisplay:10.37,2013-09-10 20:39:00,
2013-09-10 15:44:00,81.9,66.6,29.90,South,180,2.8,5.8,60,0.00,SCT,,0.01,WeatherDisplay:10.37,2013-09-10 20:44:00,
2013-09-10 15:49:00,82.4,66.6,29.90,SSW,202,5.6,6.3,59,0.00,SCT,,0.01,WeatherDisplay:10.37,2013-09-10 20:49:00,
2013-09-10 15:54:00,82.0,66.3,29.90,West,270,7.6,8.1,59,0.00,SCT,,0.01,WeatherDisplay:10.37,2013-09-10 20:54:00,
2013-09-10 15:59:00,82.8,67.0,29.90,SSW,202,3.1,5.8,59,0.00,SCT,,0.01,WeatherDisplay:10.37,2013-09-10 20:59:00,
2013-09-10 16:04:00,82.8,67.0,29.90,SSW,202,4.1,4.7,59,0.00,SCT,,0.01,WeatherDisplay:10.37,2013-09-10 21:04:00,
2013-09-10 16:09:00,83.5,67.2,29.90,SW,225,2.6,4.6,58,0.00,SCT,,0.01,WeatherDisplay:10.37,2013-09-10 21:09:00,
2013-09-10 16:14:00,84.2,67.3,29.89,SSE,158,5.5,8.1,57,0.00,SCT,,0.01,WeatherDisplay:10.37,2013-09-10 21:14:00,
2013-09-10 16:19:00,83.1,66.8,29.89,SSW,202,4.5,4.7,58,0.00,SCT,,0.01,WeatherDisplay:10.37,2013-09-10 21:19:00,
2013-09-10 16:24:00,84.2,67.3,29.90,SSW,202,5.3,8.1,57,0.00,SCT,,0.01,WeatherDisplay:10.37,2013-09-10 21:24:00,
2013-09-10 16:29:00,83.8,66.4,29.90,North,360,5.3,5.8,56,0.00,SCT,,0.01,WeatherDisplay:10.37,2013-09-10 21:29:00,
2013-09-10 16:34:00,84.7,66.7,29.90,West,270,3.2,4.2,55,0.00,SCT,,0.01,WeatherDisplay:10.37,2013-09-10 21:34:00,
2013-09-10 16:39:00,83.7,65.3,29.90,South,180,5.2,8.1,54,0.00,SCT,,0.01,WeatherDisplay:10.37,2013-09-10 21:39:00,
2013-09-10 16:44:00,84.0,66.1,29.90,SW,225,4.5,4.6,55,0.00,SCT,,0.01,WeatherDisplay:10.37,2013-09-10 21:44:00,
2013-09-10 16:49:00,84.2,64.1,29.90,SSW,202,7.0,8.1,51,0.00,SCT,,0.01,WeatherDisplay:10.37,2013-09-10 21:49:00,
2013-09-10 16:54:00,83.7,62.5,29.90,West,270,4.6,6.9,49,0.00,SCT,,0.01,WeatherDisplay:10.37,2013-09-10 21:54:00,
2013-09-10 16:59:00,83.7,61.9,29.90,West,270,5.8,13.8,48,0.00,SCT,,0.01,WeatherDisplay:10.37,2013-09-10 21:59:00,
2013-09-10 17:04:00,84.2,62.4,29.90,SW,225,4.6,4.6,48,0.00,CLR,,0.01,WeatherDisplay:10.37,2013-09-10 22:04:00,
2013-09-10 17:09:00,84.2,61.2,29.90,WNW,292,3.7,16.1,46,0.00,CLR,,0.01,WeatherDisplay:10.37,2013-09-10 22:09:00,
2013-09-10 17:14:00,84.4,60.7,29.90,SSE,158,7.8,11.5,45,0.00,CLR,,0.01,WeatherDisplay:10.37,2013-09-10 22:14:00,
2013-09-10 17:19:00,85.3,60.3,29.90,West,270,6.5,11.5,43,0.00,CLR,,0.01,WeatherDisplay:10.37,2013-09-10 22:19:00,
2013-09-10 17:24:00,85.6,59.9,29.90,WSW,248,4.0,6.9,42,0.00,CLR,,0.01,WeatherDisplay:10.37,2013-09-10 22:24:00,
2013-09-10 17:29:00,84.7,59.7,29.90,SW,225,6.0,10.4,43,0.00,CLR,,0.01,WeatherDisplay:10.37,2013-09-10 22:29:00,
2013-09-10 17:34:00,85.1,59.4,29.90,West,270,6.2,8.1,42,0.00,CLR,,0.01,WeatherDisplay:10.37,2013-09-10 22:34:00,
2013-09-10 17:39:00,84.7,59.7,29.90,West,270,5.8,8.3,43,0.00,CLR,,0.01,WeatherDisplay:10.37,2013-09-10 22:39:00,
2013-09-10 17:44:00,84.4,59.5,29.90,West,270,3.3,10.4,43,0.00,CLR,,0.01,WeatherDisplay:10.37,2013-09-10 22:44:00,
2013-09-10 17:49:00,84.9,59.9,29.90,West,270,4.1,5.3,43,0.00,CLR,,0.01,WeatherDisplay:10.37,2013-09-10 22:49:00,
2013-09-10 17:54:00,84.0,59.7,29.90,SW,225,3.8,4.6,44,0.00,CLR,,0.01,WeatherDisplay:10.37,2013-09-10 22:54:00,
2013-09-10 17:59:00,84.0,59.7,29.90,South,180,3.8,8.1,44,0.00,CLR,,0.01,WeatherDisplay:10.37,2013-09-10 22:59:00,
2013-09-10 18:04:00,84.2,59.9,29.91,SW,225,5.4,8.3,44,0.00,CLR,,0.01,WeatherDisplay:10.37,2013-09-10 23:04:00,
2013-09-10 18:09:00,83.7,60.1,29.91,SSW,202,4.7,5.8,45,0.00,CLR,,0.01,WeatherDisplay:10.37,2013-09-10 23:09:00,
2013-09-10 18:14:00,83.3,59.7,29.91,SW,225,3.9,5.8,45,0.00,CLR,,0.01,WeatherDisplay:10.37,2013-09-10 23:14:00,
2013-09-10 18:19:00,83.1,60.2,29.91,West,270,2.4,4.6,46,0.00,CLR,,0.01,WeatherDisplay:10.37,2013-09-10 23:19:00,
2013-09-10 18:24:00,82.0,60.4,29.91,WNW,292,3.6,5.8,48,0.00,CLR,,0.01,WeatherDisplay:10.37,2013-09-10 23:24:00,
2013-09-10 18:29:00,81.3,60.3,29.91,WSW,248,3.7,6.9,49,0.00,CLR,,0.01,WeatherDisplay:10.37,2013-09-10 23:29:00,
2013-09-10 18:34:00,80.4,60.1,29.91,SW,225,4.4,5.8,50,0.00,CLR,,0.01,WeatherDisplay:10.37,2013-09-10 23:34:00,
2013-09-10 18:39:00,80.1,60.3,29.91,West,270,2.0,2.3,51,0.00,CLR,,0.01,WeatherDisplay:10.37,2013-09-10 23:39:00,
2013-09-10 18:44:00,79.7,60.0,29.91,WSW,248,1.6,1.6,51,0.00,CLR,,0.01,WeatherDisplay:10.37,2013-09-10 23:44:00,
2013-09-10 18:49:00,79.0,59.3,29.92,SW,225,2.2,4.6,51,0.00,CLR,,0.01,WeatherDisplay:10.37,2013-09-10 23:49:00,
2013-09-10 18:54:00,78.3,59.2,29.92,SSW,202,2.5,3.5,52,0.00,CLR,,0.01,WeatherDisplay:10.37,2013-09-10 23:54:00,
2013-09-10 18:59:00,77.7,58.7,29.92,WSW,248,1.9,2.3,52,0.00,CLR,,0.01,WeatherDisplay:10.37,2013-09-10 23:59:00,
2013-09-10 19:04:00,77.2,58.7,29.92,West,270,1.9,2.3,53,0.00,CLR,,0.01,WeatherDisplay:10.37,2013-09-11 00:04:00,
2013-09-10 19:09:00,77.0,59.1,29.92,SSW,202,0.0,2.3,54,0.00,CLR,,0.01,WeatherDisplay:10.37,2013-09-11 00:09:00,
2013-09-10 19:14:00,76.5,58.6,29.92,SSW,202,0.0,0.0,54,0.00,CLR,,0.01,WeatherDisplay:10.37,2013-09-11 00:14:00,
2013-09-10 19:19:00,75.9,58.6,29.92,SW,225,0.0,0.0,55,0.00,CLR,,0.01,WeatherDisplay:10.37,2013-09-11 00:19:00,
2013-09-10 19:24:00,75.2,58.4,29.92,WSW,248,0.0,0.0,56,0.00,CLR,,0.01,WeatherDisplay:10.37,2013-09-11 00:24:00,
2013-09-10 19:29:00,74.7,58.0,29.92,WSW,248,0.0,0.0,56,0.00,CLR,,0.01,WeatherDisplay:10.37,2013-09-11 00:29:00,
2013-09-10 19:34:00,74.3,58.1,29.92,SSW,202,0.0,0.0,57,0.00,CLR,,0.01,WeatherDisplay:10.37,2013-09-11 00:34:00,
2013-09-10 19:39:00,73.9,57.7,29.92,SW,225,0.0,0.0,57,0.00,CLR,,0.01,WeatherDisplay:10.37,2013-09-11 00:39:00,
2013-09-10 19:44:00,73.8,57.6,29.92,South,180,0.0,0.0,57,0.00,CLR,,0.01,WeatherDisplay:10.37,2013-09-11 00:44:00,
2013-09-10 19:49:00,73.4,57.7,29.93,South,180,0.0,0.0,58,0.00,CLR,,0.01,WeatherDisplay:10.37,2013-09-11 00:49:00,
2013-09-10 19:54:00,72.9,57.7,29.93,ESE,112,0.0,0.0,59,0.00,CLR,,0.01,WeatherDisplay:10.37,2013-09-11 00:54:00,
2013-09-10 19:59:00,72.5,57.4,29.94,SSE,158,0.0,0.0,59,0.00,CLR,,0.01,WeatherDisplay:10.37,2013-09-11 00:59:00,
2013-09-10 20:04:00,72.3,57.2,29.94,South,180,2.1,2.3,59,0.00,CLR,,0.01,WeatherDisplay:10.37,2013-09-11 01:04:00,
2013-09-10 20:09:00,72.3,57.2,29.94,SSE,158,0.6,3.5,59,0.00,CLR,,0.01,WeatherDisplay:10.37,2013-09-11 01:09:00,
2013-09-10 20:14:00,72.3,57.2,29.94,West,270,1.3,2.3,59,0.00,CLR,,0.01,WeatherDisplay:10.37,2013-09-11 01:14:00,
2013-09-10 20:19:00,72.3,57.2,29.94,WNW,292,0.8,2.7,59,0.00,CLR,,0.01,WeatherDisplay:10.37,2013-09-11 01:19:00,
2013-09-10 20:24:00,72.1,57.4,29.95,South,180,0.4,1.2,60,0.00,CLR,,0.01,WeatherDisplay:10.37,2013-09-11 01:24:00,
2013-09-10 20:29:00,71.8,57.2,29.95,NNW,338,0.0,0.0,60,0.00,CLR,,0.01,WeatherDisplay:10.37,2013-09-11 01:29:00,
2013-09-10 20:34:00,71.2,57.1,29.95,NNW,338,0.0,0.0,61,0.00,CLR,,0.01,WeatherDisplay:10.37,2013-09-11 01:34:00,
2013-09-10 20:39:00,70.9,57.2,29.95,SSE,158,0.0,0.0,62,0.00,CLR,,0.01,WeatherDisplay:10.37,2013-09-11 01:39:00,
2013-09-10 20:44:00,70.3,57.1,29.95,North,360,0.0,0.0,63,0.00,CLR,,0.01,WeatherDisplay:10.37,2013-09-11 01:44:00,
2013-09-10 20:49:00,70.0,56.8,29.96,South,180,0.0,0.0,63,0.00,CLR,,0.01,WeatherDisplay:10.37,2013-09-11 01:49:00,
2013-09-10 20:54:00,69.4,56.3,29.96,South,180,0.0,0.0,63,0.00,CLR,,0.01,WeatherDisplay:10.37,2013-09-11 01:54:00,
2013-09-10 20:59:00,69.3,56.6,29.96,SSE,158,0.0,0.0,64,0.00,CLR,,0.01,WeatherDisplay:10.37,2013-09-11 01:59:00,
2013-09-10 21:04:00,68.7,56.5,29.96,South,180,0.0,0.0,65,0.00,CLR,,0.01,WeatherDisplay:10.37,2013-09-11 02:04:00,
2013-09-10 21:09:00,68.4,56.6,29.96,SE,135,0.0,0.0,66,0.00,CLR,,0.01,WeatherDisplay:10.37,2013-09-11 02:09:00,
2013-09-10 21:14:00,67.8,56.0,29.97,SSE,158,0.0,0.0,66,0.00,CLR,,0.01,WeatherDisplay:10.37,2013-09-11 02:14:00,
2013-09-10 21:19:00,67.5,56.6,29.97,SSE,158,0.0,0.0,68,0.00,CLR,,0.01,WeatherDisplay:10.37,2013-09-11 02:19:00,
2013-09-10 21:24:00,66.9,56.8,29.97,South,180,0.0,0.0,70,0.00,CLR,,0.01,WeatherDisplay:10.37,2013-09-11 02:24:00,
2013-09-10 21:29:00,66.7,56.6,29.97,South,180,0.0,0.0,70,0.00,CLR,,0.01,WeatherDisplay:10.37,2013-09-11 02:29:00,
2013-09-10 21:34:00,66.7,56.6,29.97,South,180,0.0,0.0,70,0.00,CLR,,0.01,WeatherDisplay:10.37,2013-09-11 02:34:00,
2013-09-10 21:39:00,66.7,56.6,29.97,South,180,0.0,0.0,70,0.00,CLR,,0.01,WeatherDisplay:10.37,2013-09-11 02:39:00,
2013-09-10 21:44:00,66.7,56.6,29.97,South,180,0.0,0.0,70,0.00,CLR,,0.01,WeatherDisplay:10.37,2013-09-11 02:44:00,
2013-09-10 21:49:00,66.7,56.6,29.97,South,180,0.0,0.0,70,0.00,CLR,,0.01,WeatherDisplay:10.37,2013-09-11 02:49:00,
2013-09-10 21:54:00,66.7,56.6,29.97,South,180,0.0,0.0,70,0.00,CLR,,0.01,WeatherDisplay:10.37,2013-09-11 02:54:00,
2013-09-10 21:59:00,66.7,56.6,29.97,South,180,0.0,0.0,70,0.00,CLR,,0.01,WeatherDisplay:10.37,2013-09-11 02:59:00,
2013-09-10 22:04:00,66.7,56.6,29.97,South,180,0.0,0.0,70,0.00,CLR,,0.01,WeatherDisplay:10.37,2013-09-11 03:04:00,
2013-09-10 22:09:00,66.7,56.6,29.97,South,180,0.0,0.0,70,0.00,CLR,,0.01,WeatherDisplay:10.37,2013-09-11 03:09:00,
2013-09-10 22:14:00,66.7,56.6,29.97,South,180,0.0,0.0,70,0.00,CLR,,0.01,WeatherDisplay:10.37,2013-09-11 03:14:00,
2013-09-10 22:19:00,66.7,56.6,29.97,South,180,0.0,0.0,70,0.00,CLR,,0.01,WeatherDisplay:10.37,2013-09-11 03:19:00,
2013-09-10 22:24:00,66.7,56.6,29.97,South,180,0.0,0.0,70,0.00,CLR,,0.01,WeatherDisplay:10.37,2013-09-11 03:24:00,
2013-09-10 22:29:00,66.7,56.6,29.97,South,180,0.0,0.0,70,0.00,CLR,,0.01,WeatherDisplay:10.37,2013-09-11 03:29:00,
2013-09-10 22:34:00,66.7,56.6,29.97,South,180,0.0,0.0,70,0.00,CLR,,0.01,WeatherDisplay:10.37,2013-09-11 03:34:00,
2013-09-10 22:39:00,66.7,56.6,29.97,South,180,0.0,0.0,70,0.00,CLR,,0.01,WeatherDisplay:10.37,2013-09-11 03:39:00,
2013-09-10 22:44:00,66.7,56.6,29.97,South,180,0.0,0.0,70,0.00,CLR,,0.01,WeatherDisplay:10.37,2013-09-11 03:44:00,
2013-09-10 22:49:00,66.7,56.6,29.97,South,180,0.0,0.0,70,0.00,CLR,,0.01,WeatherDisplay:10.37,2013-09-11 03:49:00,
2013-09-10 22:54:00,66.7,56.6,29.97,South,180,0.0,0.0,70,0.00,CLR,,0.01,WeatherDisplay:10.37,2013-09-11 03:54:00,
2013-09-10 22:59:00,66.7,56.6,29.97,South,180,0.0,0.0,70,0.00,CLR,,0.01,WeatherDisplay:10.37,2013-09-11 03:59:00,
2013-09-10 23:01:00,66.7,56.6,29.97,South,180,0.0,0.0,70,0.00,CLR,,0.01,WeatherDisplay:10.37,2013-09-11 04:01:00,
2013-09-10 23:02:00,66.7,56.6,29.97,South,180,0.0,0.0,70,0.00,CLR,,0.01,WeatherDisplay:10.37,2013-09-11 04:02:00,
2013-09-10 23:04:00,66.7,56.6,29.97,South,180,0.0,0.0,70,0.00,CLR,,0.01,WeatherDisplay:10.37,2013-09-11 04:04:00,
2013-09-10 23:09:00,66.7,56.6,29.97,South,180,0.0,0.0,70,0.00,CLR,,0.01,WeatherDisplay:10.37,2013-09-11 04:09:00,
2013-09-10 23:14:00,66.7,56.6,29.97,South,180,0.0,0.0,70,0.00,CLR,,0.01,WeatherDisplay:10.37,2013-09-11 04:14:00,
2013-09-10 23:19:00,66.7,56.6,29.97,South,180,0.0,0.0,70,0.00,CLR,,0.01,WeatherDisplay:10.37,2013-09-11 04:19:00,
2013-09-10 23:24:00,66.7,56.6,29.97,South,180,0.0,0.0,70,0.00,CLR,,0.01,WeatherDisplay:10.37,2013-09-11 04:24:00,
2013-09-10 23:29:00,66.7,56.6,29.97,South,180,0.0,0.0,70,0.00,CLR,,0.01,WeatherDisplay:10.37,2013-09-11 04:29:00,
2013-09-10 23:34:00,66.7,56.6,29.97,South,180,0.0,0.0,70,0.00,CLR,,0.01,WeatherDisplay:10.37,2013-09-11 04:34:00,
2013-09-10 23:39:00,66.7,56.6,29.97,South,180,0.0,0.0,70,0.00,CLR,,0.01,WeatherDisplay:10.37,2013-09-11 04:39:00,
2013-09-10 23:44:00,66.7,56.6,29.97,South,180,0.0,0.0,70,0.00,CLR,,0.01,WeatherDisplay:10.37,2013-09-11 04:44:00,
2013-09-10 23:49:00,66.7,56.6,29.97,South,180,0.0,0.0,70,0.00,CLR,,0.01,WeatherDisplay:10.37,2013-09-11 04:49:00,
2013-09-10 23:54:00,66.7,56.6,29.97,South,180,0.0,0.0,70,0.00,CLR,,0.01,WeatherDisplay:10.37,2013-09-11 04:54:00,
2013-09-10 23:59:00,66.7,56.6,29.97,South,180,0.0,0.0,70,0.00,CLR,,0.01,WeatherDisplay:10.37,2013-09-11 04:59:00,